Regional Weather Roundup
Issued by NWS

Home | Current Version | Previous Version | Graphics & Text | Print | Product List | Glossary On
Versions: 1 2 3 4 5 6 7 8 9 10 11 12 13 14 15 16 17 18 19 20 21 22 23 24 25 26 27 28 29 30 31 32 33 34 35 36 37 38 39 40 41 42 43 44 45 46 47 48 49 50
000
ASUS43 KIND 201809
RWRIN

WEATHER ROUNDUP FOR INDIANA
NATIONAL WEATHER SERVICE INDIANAPOLIS IN
200 PM EDT WED AUG 20 2014

NOTE: "FAIR" INDICATES FEW OR NO CLOUDS BELOW 12,000 FEET WITH NO
SIGNIFICANT WEATHER AND/OR OBSTRUCTIONS TO VISIBILITY.

* - STATION DOES NOT REPORT WEATHER SUCH AS PRECIPITATION OR FOG.

+ - STATION NOT QUALITY CONTROLLED BY THE NATIONAL WEATHER SERVICE.
    USE DATA WITH CAUTION...ESPECIALLY DEWPOINT AND RELATIVE
    HUMIDITY OBSERVATIONS.

INZ001>003-010>013-019-020-201900-
NORTHWEST INDIANA

CITY           SKY/WX    TMP DP  RH WIND       PRES   REMARKS
GARY /AIRPORT/ PTSUNNY   84  64  51 SW12      29.93R
KNOX *+        MOSUNNY   82  66  58 W13G18    29.93S
LA PORTE +     PTSUNNY   81  65  57 SW10      29.94S
6HR MIN TEMP:  64; 6HR MAX TEMP:  82;

MICHIGAN CITY+ MOSUNNY   81  64  57 SW5       29.93S
MONTICELLO +   PTSUNNY   81  67  62 W10G16    29.96R
RENSSELAER +   PTSUNNY   82  70  65 SW8G16    29.95F
VALPARAISO     MOSUNNY   83  65  54 W17G24    29.94S
6HR MIN TEMP:  65; 6HR MAX TEMP:  83;


$$

LMZ046-743>745-201900-
SOUTHERN LAKE MICHIGAN

STATION/POSITION TIME  TEMP WIND        PRES
                       AIR  DIR/SP/G
                 (UTC) (F)  (DEG/KT/KT) (MB)
BURNS HARBOR     1800   81  230/ 16/ 21   N/A
MICHIGAN CITY    1800   74  230/  1/  2   N/A

$$

INZ004-005-014>016-021>024-201900-
NORTH CENTRAL INDIANA

CITY           SKY/WX    TMP DP  RH WIND       PRES   REMARKS
GOSHEN         PTSUNNY   84  65  52 W15       29.93R
6HR MIN TEMP:  66; 6HR MAX TEMP:  84;

LOGANSPORT +   PTSUNNY   82  61  47 W16       29.97R
PERU/GRISSOM   MOSUNNY   83  68  60 W12       29.97R
6HR MIN TEMP:  66; 6HR MAX TEMP:  83; 6HR PCP:  0.01;

ROCHESTER +    MOSUNNY   84  64  51 W15G21    29.96R
SOUTH BEND     MOSUNNY   77 N/A N/A W9        29.94R
WARSAW +       PTSUNNY   81  64  57 W12G17    29.94S

$$

INZ006>009-017-018-025>027-201900-
NORTHEAST INDIANA

CITY           SKY/WX    TMP DP  RH WIND       PRES   REMARKS
ANGOLA *+      PTSUNNY   82  66  57 SW14      29.93R
AUBURN +       SUNNY     81  63  54 W8G17     29.95R
FORT WAYNE     PTSUNNY   82  68  62 W13G20    29.95R
6HR MIN TEMP:  66; 6HR MAX TEMP:  82;

HUNTINGTON +   PTSUNNY   82  65  56 W10G18    29.95R
6HR MIN TEMP:  66; 6HR MAX TEMP:  82;


$$

INZ028-029-035-036-043>045-051>053-201900-
WEST CENTRAL INDIANA

CITY           SKY/WX    TMP DP  RH WIND       PRES   REMARKS
GREENCASTLE +  LGT RAIN  70  66  88 NW10      30.03R
LAFAYETTE      CLOUDY    80  69  69 SW8       29.97R
6HR MIN TEMP:  61; 6HR MAX TEMP:  82;

TERRE HAUTE    LGT RAIN  77  70  79 W12G22    30.03R
6HR MIN TEMP:  73; 6HR MAX TEMP:  82; 6HR PCP:  0.03;


$$

INZ030>032-037>040-046>048-054>057-064-065-201900-
CENTRAL INDIANA

CITY           SKY/WX    TMP DP  RH WIND       PRES   REMARKS
ANDERSON       MOSUNNY   82  63  51 W12G23    29.98R
CP ATTERBURY + CLOUDY    81  70  69 W6        29.99R
COLUMBUS       MOSUNNY   82  73  74 NW8       29.99R
FRANKFORT +    CLOUDY    81  69  66 W12       30.01R
INDIANAPOLIS   CLOUDY    81  68  64 W16       29.99R THUNDER
6HR MIN TEMP:  67; 6HR MAX TEMP:  83;

-EAGLE CREEK   CLOUDY    81  66  60 W13       29.99R
6HR MIN TEMP:  66; 6HR MAX TEMP:  82;

KOKOMO *+      MOSUNNY   82  64  54 W17       29.97R
MARION +       MOSUNNY   82  64  54 NW9       29.97R
MT COMFORT *+  PTSUNNY   82  59  44 W14       29.99R
SHELBYVILLE    PTSUNNY   83  70  64 W9        29.97R
6HR MIN TEMP:  68; 6HR MAX TEMP:  83;

ZIONSVILLE +   CLOUDY    82  67  61 W13       30.00R
6HR MIN TEMP:  68; 6HR MAX TEMP:  82;


$$

INZ033-034-041-042-049-050-058-059-201900-
EAST CENTRAL INDIANA

CITY           SKY/WX    TMP DP  RH WIND       PRES   REMARKS
MUNCIE         MOSUNNY   83  64  52 W14       29.96R
6HR MIN TEMP:  66; 6HR MAX TEMP:  83;


$$

INZ060-061-067>069-081>083-085>088-201900-
SOUTHWEST INDIANA

CITY           SKY/WX    TMP DP  RH WIND       PRES   REMARKS
EVANSVILLE     CLOUDY    85  76  74 W7        30.00R
6HR MIN TEMP:  71; 6HR MAX TEMP:  86;

WASHINGTON +   CLOUDY    79  76  90 W6        30.01R
6HR MIN TEMP:  68; 6HR MAX TEMP:  84;


$$

INZ062-063-066-070>080-084-089>092-201900-
SOUTH CENTRAL AND SOUTHEAST INDIANA

CITY           SKY/WX    TMP DP  RH WIND       PRES   REMARKS
BLOOMINGTON    CLOUDY    78  73  84 W5        30.01R
6HR MIN TEMP:  72; 6HR MAX TEMP:  83;

SEYMOUR +      PTSUNNY   81  55  41 W5        29.97R

$$



USA.gov is the U.S. government's official web portal to all federal, state and local government web resources and services.